Weather Roundup
Issued by NWS

Home | Current Version | Previous Version | Text Only | Print | Product List | Glossary On
Versions: 1 2 3 4 5 6 7 8 9 10 11 12 13 14 15 16 17 18 19 20 21 22 23 24 25 26 27 28 29 30 31 32 33 34 35 36 37 38 39 40 41 42 43 44 45 46 47 48 49 50
000
NZUS93 KARX 021259
HRRWXR

CURRENT HOURLY OBSERVATIONS ACROSS
MUCH OF THE UPPER MISSISSIPPI VALLEY
NATIONAL WEATHER SERVICE LA CROSSE WI
700 AM CST FRI DEC 02 2016


...SOUTHEAST MINNESOTA...


CITY           SKY/WX    TMP DP  RH WIND       PRES   REMARKS
ROCHESTER      CLOUDY    31  25  78 NW8       30.13R WCI  23
ROCHESTER/MAYO CLOUDY    31  24  76 NW6       30.14R WCI  25
WINONA         CLOUDY    32  25  74 NW5       30.16R WCI  27
AUSTIN         CLOUDY    30  23  74 NW7       30.14R WCI  23
ALBERT LEA     CLOUDY    34  27  75 NW8       30.16R WCI  27
DODGE CENTER   CLOUDY    30  23  74 NW9       30.14R WCI  22
PRESTON        CLOUDY    30  24  79 N5        30.13R WCI  25
OWATONNA       CLOUDY    30  23  74 NW12G17   30.16R WCI  21
FARIBAULT      CLOUDY    30  25  80 NW7       30.16R WCI  23
$$

...ELSEWHERE IN MINNESOTA...


CITY           SKY/WX    TMP DP  RH WIND       PRES   REMARKS
MINNEAPOLIS    CLOUDY    31  21  66 NW7       30.16R WCI  24
INTNL FALLS    CLOUDY    25  22  88 NW7       30.14R WCI  17
DULUTH         CLOUDY    27  22  81 N13       30.09R WCI  16
RED WING       CLOUDY    32  21  64 NW5       30.15R WCI  27
REDWOOD FALLS  CLOUDY    30  21  69 NW7       30.19R WCI  23
MANKATO        CLOUDY    30  23  75 NW10      30.18R WCI  21
WORTHINGTON    CLOUDY    29  26  89 NW9       30.18R WCI  20
FAIRMONT       CLOUDY    31  27  85 N12       30.18R WCI  22
$$

...SOUTHWEST WISCONSIN...


CITY           SKY/WX    TMP DP  RH WIND       PRES   REMARKS
LA CROSSE      CLOUDY    34  24  67 N13       30.14R WCI  25
PRAIRIE DU CHI CLOUDY    35  29  78 NW9       30.12R WCI  28
BOSCOBEL       CLOUDY    36  25  64 NW7       30.13R WCI  30
LONE ROCK      NOT AVBL
PLATTEVILLE    CLOUDY    33  33 100 W6        30.11R WCI  28
FORT MC COY    CLOUDY    31  24  73 NW9       30.12R WCI  23
MAUSTON-NEW LI CLOUDY    32  24  72 NW9       30.10R WCI  24
VIROQUA        CLOUDY    31  25  78 W7        30.10R WCI  24
WIS DELLS      CLOUDY    32  24  72 NW6       30.09R WCI  26
$$

...ELSEWHERE IN WISCONSIN...


CITY           SKY/WX    TMP DP  RH WIND       PRES   REMARKS
MILWAUKEE      CLOUDY    35  25  66 NW9       30.08R WCI  28
MADISON        CLOUDY    33  26  75 N7        30.09R WCI  27
GREEN BAY      CLOUDY    34  26  72 NW8       30.06R WCI  27
EAU CLAIRE     NOT AVBL
BLACK RVR FLS  CLOUDY    32  21  64 N9        30.12R WCI  24
MEDFORD        CLOUDY    28  22  79 N5        30.06R WCI  22
WAUSAU         CLOUDY    28  21  75 NW12      30.06R WCI  18
WIS RAPIDS     CLOUDY    31  22  69 N9        30.09R WCI  23
MARSHFIELD     CLOUDY    29  21  72 NW9       30.07R WCI  20
RICE LAKE      CLOUDY    30  23  76 W5        30.13R WCI  25
$$

...NORTHEAST IOWA...


CITY           SKY/WX    TMP DP  RH WIND       PRES   REMARKS
WATERLOO       CLOUDY    33  27  78 NW7       30.16R WCI  27
DUBUQUE        MOCLDY    33  32  96 W7        30.12R WCI  27
DECORAH        CLOUDY    32  25  74 NW7       30.12R WCI  26
MASON CITY     CLOUDY    31  26  82 NW9       30.17R WCI  23
CHARLES CITY   MOCLDY    32  28  86 NW12      30.15R WCI  23
OELWEIN        CLOUDY    32  28  86 NW12      30.14R WCI  23
$$

...ELSEWHERE IN IOWA...


CITY           SKY/WX    TMP DP  RH WIND       PRES   REMARKS
DES MOINES     CLOUDY    35  31  85 W6        30.19R WCI  30
IOWA CITY      CLOUDY    36  32  85 W7        30.18R WCI  30
FORT DODGE     CLOUDY    34  28  80 N3        30.18R
MARSHALLTOWN   CLOUDY    34  33  96 NW8       30.16R WCI  27
CEDAR RAPIDS   CLOUDY    34  34 100 W8        30.15R WCI  27
$$

...NORTHERN ILLINOIS...


CITY           SKY/WX    TMP DP  RH WIND       PRES   REMARKS
CHICAGO-OHARE  CLOUDY    37  30  75 W9        30.09R WCI  30
CHICAGO-MIDWAY CLOUDY    38  30  73 W8        30.11R WCI  32
MOLINE         CLOUDY    38  32  79 W8        30.15R WCI  32
ROCKFORD       CLOUDY    37  31  78 W7        30.12R WCI  32
PEORIA         CLOUDY    37  32  82 W6        30.17R WCI  32
$$

NOTE: "FAIR" INDICATES FEW OR NO CLOUDS BELOW 12,000 FEET WITH NO
SIGNIFICANT WEATHER AND/OR OBSTRUCTIONS TO VISIBILITY. WIND
SPEEDS ARE IN MILES-PER-HOUR.




USA.gov is the U.S. government's official web portal to all federal, state and local government web resources and services.